Flag for Poland Past Weather in Gorzów Wielkopolski, Poland — Yesterday and Last 2 Weeks

Now
64 °F

Passing clouds.


Feels Like: 64 °F
Forecast: 60 / 72 °F
Wind: 2 mph from Northeast

Location: Gorzow Wlkp

Current Time: Jul 31, 2016 at 9:21:06 AM

Latest Report: Jul 31, 2016 at 8:00 AM


Visibility: 13 mi

Pressure: 29.89 "Hg

Humidity: 81%

Dew Point: 58 °F

Location of Gorzów WielkopolskiLocation

Past Weather in Gorzów Wielkopolski — Graph

°F

Gorzów Wielkopolski Temperature Yesterday

Maximum temperature yesterday: 75 °F (at 6:00 PM)
Minimum temperature yesterday: 63 °F (at 3:00 AM)
Average temperature yesterday: 69 °F

High & Low Weather Summary for the Past Weeks

 TemperatureHumidityPressure
High84 °F (Jul 25, 4:00 PM)97% (Jul 17, 7:00 AM)30.23 "Hg (Jul 17, 7:00 AM)
Low58 °F (Jul 21, 5:00 AM)26% (Jul 22, 3:00 PM)29.84 "Hg (Jul 29, 7:00 PM)
Average68 °F69%30.04 "Hg
* Reported Jul 16 8:00 AM — Jul 31 8:00 AM, Gorzów Wielkopolski, Weather by CustomWeather, © 2016

Note: Actual official high and low records may vary slightly from our data, if they occured in-between our weather recording intervals... More about our weather records

Advertising

Gorzów Wielkopolski Weather History for the Previous 24 Hours

Scroll right to see more
 ConditionsComfort  
Time TempWeatherWind HumidityBarometerVisibility
8:00 AM
Sun, Jul 31
64 °FPassing clouds.2 mph81%29.89 "Hg12 mi
7:00 AM62 °FPassing clouds.2 mph88%29.89 "Hg7 mi
6:00 AM59 °FScattered clouds.2 mph90%29.89 "Hg7 mi
5:00 AM61 °FPassing clouds.1 mph88%29.89 "Hg9 mi
4:00 AM61 °FPassing clouds.No wind88%29.89 "Hg12 mi
3:00 AM62 °FPassing clouds.1 mph84%29.89 "Hg19 mi
2:00 AM64 °FClear.1 mph77%29.88 "Hg19 mi
1:00 AM66 °FPassing clouds.2 mph71%29.88 "Hg25 mi
11:00 PM
Sat, Jul 30
68 °FPassing clouds.1 mph68%29.88 "Hg25 mi
10:00 PM71 °FPassing clouds.1 mph60%29.88 "Hg19 mi
9:00 PM72 °FPassing clouds.2 mph54%29.87 "Hg19 mi
8:00 PM74 °FPartly sunny.2 mph51%29.86 "Hg25 mi
7:00 PM75 °FPassing clouds.3 mph48%29.86 "Hg31 mi
6:00 PM75 °FScattered clouds.3 mph50%29.85 "Hg31 mi
5:00 PM75 °FScattered clouds.3 mph55%29.86 "Hg31 mi
4:00 PM72 °FPartly sunny.3 mph58%29.86 "Hg31 mi
3:00 PM73 °FOvercast.3 mph56%29.87 "Hg31 mi
2:00 PM74 °FOvercast.5 mph50%29.87 "Hg31 mi
1:00 PM73 °FOvercast.5 mph51%29.87 "Hg28 mi
12:00 PM74 °FPartly sunny.5 mph58%29.87 "Hg28 mi
11:00 AM74 °FOvercast.3 mph62%29.87 "Hg22 mi
10:00 AM70 °FPartly sunny.3 mph78%29.88 "Hg22 mi
9:00 AM68 °FOvercast.3 mph82%29.87 "Hg19 mi
Weather by CustomWeather, © 2016

See weather overviewHow to use our weather pages